TimeCDT,TemperatureF,Dew PointF,Humidity,Sea Level PressureIn,VisibilityMPH,Wind Direction,Wind SpeedMPH,Gust SpeedMPH,PrecipitationIn,Events,Conditions,WindDirDegrees,DateUTC
12:08 AM,55.4,55.4,100,29.95,1.5,East,2.3,-,N/A,,Mostly Cloudy,90,2013-10-30 05:08:00
12:18 AM,55.4,55.4,100,29.95,1.5,East,3.5,-,N/A,,Scattered Clouds,100,2013-10-30 05:18:00
12:33 AM,55.4,55.4,100,29.95,1.0,East,4.6,-,N/A,,Clear,90,2013-10-30 05:33:00
12:38 AM,55.4,55.4,100,29.95,1.5,ENE,2.3,-,N/A,,Overcast,70,2013-10-30 05:38:00
12:58 AM,54.9,54.9,100,29.96,1.0,NE,1.2,-,N/A,,Mist,50,2013-10-30 05:58:00
1:13 AM,55.4,55.4,100,29.94,0.8,WNW,2.3,-,N/A,,Mist,300,2013-10-30 06:13:00
1:21 AM,55.4,55.4,100,29.94,0.8,NNW,2.3,-,N/A,,Light Drizzle,330,2013-10-30 06:21:00
1:24 AM,55.4,55.4,100,29.94,0.8,North,2.3,-,N/A,,Mist,350,2013-10-30 06:24:00
1:58 AM,55.2,55.2,100,29.96,0.5,WNW,5.8,-,0.00,Fog,Fog,290,2013-10-30 06:58:00
2:18 AM,53.6,53.6,100,29.94,1.0,WNW,5.8,-,N/A,,Mist,300,2013-10-30 07:18:00
2:23 AM,53.6,53.6,100,29.94,1.0,NW,6.9,-,N/A,,Light Drizzle,310,2013-10-30 07:23:00
2:33 AM,53.6,53.6,100,29.94,1.2,NW,5.8,-,N/A,,Light Drizzle,310,2013-10-30 07:33:00
2:48 AM,53.6,53.6,100,29.94,1.8,WNW,8.1,-,N/A,,Overcast,300,2013-10-30 07:48:00
2:58 AM,54.0,54.0,100,29.96,1.5,WNW,5.8,-,0.01,,Overcast,300,2013-10-30 07:58:00
3:08 AM,53.6,53.6,100,29.93,1.8,NW,3.5,-,N/A,,Overcast,320,2013-10-30 08:08:00
3:13 AM,53.6,53.6,100,29.93,2.0,NW,2.3,-,N/A,,Overcast,320,2013-10-30 08:13:00
3:23 AM,53.6,53.6,100,29.93,2.5,Calm,Calm,-,N/A,,Overcast,0,2013-10-30 08:23:00
3:28 AM,53.6,53.6,100,29.93,3.0,Calm,Calm,-,N/A,,Overcast,0,2013-10-30 08:28:00
3:38 AM,53.6,53.6,100,29.92,2.5,NNW,1.2,-,N/A,,Overcast,340,2013-10-30 08:38:00
3:43 AM,53.6,53.6,100,29.92,3.0,NNW,2.3,-,N/A,,Overcast,330,2013-10-30 08:43:00
3:58 AM,54.5,54.5,100,29.94,5.0,WNW,5.8,-,N/A,,Overcast,300,2013-10-30 08:58:00
4:08 AM,53.6,53.6,100,29.92,2.5,WNW,3.5,-,N/A,,Overcast,300,2013-10-30 09:08:00
4:38 AM,51.8,51.8,100,29.92,1.5,WNW,5.8,-,N/A,,Overcast,300,2013-10-30 09:38:00
4:43 AM,51.8,51.8,100,29.92,1.0,WNW,4.6,-,N/A,,Mist,300,2013-10-30 09:43:00
4:53 AM,51.8,51.8,100,29.92,0.8,WNW,4.6,-,N/A,,Mist,300,2013-10-30 09:53:00
4:58 AM,52.2,52.2,100,29.93,0.8,WNW,5.8,-,N/A,,Mist,300,2013-10-30 09:58:00
5:13 AM,51.8,51.8,100,29.91,1.0,WNW,5.8,-,N/A,,Mist,300,2013-10-30 10:13:00
5:18 AM,51.8,51.8,100,29.91,0.8,NW,3.5,-,N/A,,Mist,310,2013-10-30 10:18:00
5:28 AM,51.8,51.8,100,29.90,1.0,NW,2.3,-,N/A,,Mist,320,2013-10-30 10:28:00
5:33 AM,51.8,51.8,100,29.90,1.2,NW,2.3,-,N/A,,Overcast,320,2013-10-30 10:33:00
5:53 AM,51.8,51.8,100,29.92,1.0,Calm,Calm,-,N/A,,Mist,0,2013-10-30 10:53:00
5:58 AM,51.8,51.8,100,29.93,1.0,NW,1.2,-,N/A,,Mist,310,2013-10-30 10:58:00
6:03 AM,51.8,51.8,100,29.90,0.8,NW,2.3,-,N/A,,Mist,320,2013-10-30 11:03:00
6:49 AM,51.8,51.8,100,29.91,0.2,SSW,4.6,-,N/A,Fog-Thunderstorm,Fog,200,2013-10-30 11:49:00
6:53 AM,51.8,51.8,100,29.90,0.5,SSW,2.3,-,N/A,Fog-Rain-Thunderstorm,Light Rain,200,2013-10-30 11:53:00
6:58 AM,51.6,51.6,100,29.91,0.5,WNW,2.3,-,0.00,Fog-Rain-Thunderstorm,Light Rain,300,2013-10-30 11:58:00
7:08 AM,51.8,51.8,100,29.88,0.2,Calm,Calm,-,N/A,Fog,Fog,0,2013-10-30 12:08:00
7:57 AM,51.8,51.8,100,29.89,0.2,WNW,11.5,-,N/A,Fog-Rain-Thunderstorm,Light Rain,300,2013-10-30 12:57:00
7:58 AM,51.8,51.8,100,29.91,0.2,WNW,15.0,18.4,0.00,Fog-Rain-Thunderstorm,Light Rain,290,2013-10-30 12:58:00
8:05 AM,51.8,51.8,100,29.87,0.5,NW,10.4,29.9,N/A,Fog-Rain-Thunderstorm,Light Thunderstorms and Rain,320,2013-10-30 13:05:00
8:15 AM,50.0,50.0,100,29.88,0.5,WNW,10.4,-,N/A,Fog-Rain-Thunderstorm,Heavy Thunderstorms and Rain,300,2013-10-30 13:15:00
8:20 AM,50.0,50.0,100,29.89,1.0,NW,11.5,-,N/A,Rain-Thunderstorm,Heavy Thunderstorms and Rain,320,2013-10-30 13:20:00
8:25 AM,50.0,50.0,100,29.90,2.0,NW,12.7,-,N/A,Rain-Thunderstorm,Light Thunderstorms and Rain,310,2013-10-30 13:25:00
8:31 AM,48.2,48.2,100,29.89,4.0,NW,9.2,-,N/A,Rain-Thunderstorm,Light Rain,320,2013-10-30 13:31:00
8:35 AM,48.2,48.2,100,29.89,4.0,NW,10.4,-,N/A,Rain-Thunderstorm,Light Rain,320,2013-10-30 13:35:00
8:58 AM,49.1,49.1,100,29.89,3.0,NNE,4.6,-,0.10,,Light Drizzle,30,2013-10-30 13:58:00
9:05 AM,50.0,50.0,100,29.85,2.5,NNE,10.4,-,N/A,Rain-Thunderstorm,Light Thunderstorms and Rain,30,2013-10-30 14:05:00
9:06 AM,50.0,50.0,100,29.85,2.5,NNE,10.4,-,N/A,Rain-Thunderstorm,Light Thunderstorms and Rain,30,2013-10-30 14:06:00
9:10 AM,50.0,50.0,100,29.87,2.5,NE,6.9,-,N/A,Rain-Thunderstorm,Light Thunderstorms and Rain,50,2013-10-30 14:10:00
9:18 AM,50.0,50.0,100,29.88,3.0,NNE,8.1,-,N/A,Rain-Thunderstorm,Light Thunderstorms and Rain,20,2013-10-30 14:18:00
9:48 AM,50.0,50.0,100,29.90,1.8,North,12.7,-,N/A,Rain-Thunderstorm,Heavy Thunderstorms and Rain,360,2013-10-30 14:48:00
9:58 AM,48.2,48.2,100,29.93,5.0,Variable,3.5,-,0.15,Rain-Thunderstorm,Light Thunderstorms and Rain,0,2013-10-30 14:58:00
10:03 AM,48.2,48.2,100,29.92,10.0,Variable,2.3,-,N/A,Rain-Thunderstorm,Light Thunderstorms and Rain,0,2013-10-30 15:03:00
10:04 AM,48.2,48.2,100,29.92,10.0,NW,2.3,-,N/A,Thunderstorm,Light Drizzle,310,2013-10-30 15:04:00
10:14 AM,50.0,50.0,100,29.90,3.0,WNW,8.1,-,N/A,Rain,Heavy Rain,300,2013-10-30 15:14:00
10:19 AM,50.0,50.0,100,29.88,2.5,North,8.1,-,N/A,Rain,Light Rain,350,2013-10-30 15:19:00
10:24 AM,50.0,50.0,100,29.86,4.0,NNW,10.4,-,N/A,Rain-Thunderstorm,Light Rain,340,2013-10-30 15:24:00
10:37 AM,50.0,50.0,100,29.85,10.0,North,5.8,-,N/A,,Mostly Cloudy,10,2013-10-30 15:37:00
10:58 AM,51.8,51.8,100,29.88,10.0,Variable,3.5,-,0.06,,Mostly Cloudy,0,2013-10-30 15:58:00
11:58 AM,55.9,55.9,100,29.87,10.0,ESE,4.6,-,N/A,,Mostly Cloudy,120,2013-10-30 16:58:00
12:58 PM,58.3,58.3,100,29.84,10.0,SE,5.8,-,N/A,,Overcast,140,2013-10-30 17:58:00
1:13 PM,59.0,59.0,100,29.82,10.0,SSW,4.6,-,N/A,,Overcast,200,2013-10-30 18:13:00
1:38 PM,59.0,59.0,100,29.81,10.0,South,4.6,-,N/A,,Overcast,170,2013-10-30 18:38:00
1:58 PM,58.5,58.5,100,29.80,10.0,South,2.3,-,N/A,,Overcast,170,2013-10-30 18:58:00
2:58 PM,59.4,59.4,100,29.79,10.0,SW,5.8,-,N/A,,Overcast,230,2013-10-30 19:58:00
3:18 PM,59.0,59.0,100,29.78,10.0,West,8.1,-,N/A,,Overcast,260,2013-10-30 20:18:00
3:23 PM,59.0,59.0,100,29.78,10.0,West,9.2,-,N/A,,Overcast,270,2013-10-30 20:23:00
3:58 PM,56.8,56.8,100,29.78,7.0,WNW,11.5,-,N/A,,Overcast,300,2013-10-30 20:58:00
4:13 PM,55.4,55.4,100,29.77,7.0,NW,13.8,-,N/A,,Overcast,310,2013-10-30 21:13:00
4:58 PM,52.5,52.5,100,29.79,7.0,NW,11.5,-,N/A,,Overcast,310,2013-10-30 21:58:00
5:40 PM,50.0,50.0,100,29.77,4.0,NW,8.1,-,N/A,,Light Drizzle,310,2013-10-30 22:40:00
5:45 PM,50.0,50.0,100,29.77,2.5,NW,9.2,-,N/A,,Light Drizzle,310,2013-10-30 22:45:00
5:55 PM,48.2,48.2,100,29.77,1.8,NW,9.2,-,N/A,,Light Drizzle,310,2013-10-30 22:55:00
5:56 PM,48.2,48.2,100,29.77,1.8,NW,9.2,-,N/A,,Overcast,310,2013-10-30 22:56:00
5:58 PM,48.2,48.2,100,29.79,1.8,NW,8.1,-,0.00,,Overcast,310,2013-10-30 22:58:00
6:03 PM,48.2,48.2,100,29.77,2.0,WNW,9.2,-,N/A,,Overcast,300,2013-10-30 23:03:00
6:33 PM,48.2,48.2,100,29.76,3.0,NNW,8.1,-,N/A,,Overcast,330,2013-10-30 23:33:00
6:38 PM,48.2,48.2,100,29.76,3.0,NNW,9.2,-,N/A,,Overcast,330,2013-10-30 23:38:00
6:43 PM,48.2,48.2,100,29.76,3.0,NW,8.1,-,N/A,,Overcast,320,2013-10-30 23:43:00
6:58 PM,47.8,47.8,100,29.79,4.0,NNW,8.1,-,N/A,,Overcast,340,2013-10-30 23:58:00
7:08 PM,48.2,48.2,100,29.77,6.0,NNW,10.4,-,N/A,,Overcast,330,2013-10-31 00:08:00
7:18 PM,46.4,46.4,100,29.77,5.0,NNW,4.6,-,N/A,,Overcast,340,2013-10-31 00:18:00
7:23 PM,46.4,46.4,100,29.77,5.0,NNW,4.6,-,N/A,,Overcast,330,2013-10-31 00:23:00
7:48 PM,46.4,46.4,100,29.77,5.0,NNW,5.8,-,N/A,,Overcast,330,2013-10-31 00:48:00
7:58 PM,46.4,46.4,100,29.79,5.0,NNW,5.8,-,N/A,,Overcast,330,2013-10-31 00:58:00
8:58 PM,46.4,46.4,100,29.79,5.0,NW,10.4,-,N/A,,Overcast,320,2013-10-31 01:58:00
9:49 PM,46.4,46.4,100,29.78,8.0,NW,10.4,-,N/A,,Overcast,310,2013-10-31 02:49:00
9:58 PM,45.5,45.5,100,29.81,7.0,NW,11.5,-,N/A,,Overcast,310,2013-10-31 02:58:00
10:18 PM,44.6,44.6,100,29.78,10.0,NW,12.7,-,N/A,,Overcast,310,2013-10-31 03:18:00
10:58 PM,44.2,44.1,99,29.80,10.0,NW,9.2,-,N/A,,Overcast,310,2013-10-31 03:58:00
11:58 PM,43.7,43.5,99,29.79,10.0,NW,8.1,-,N/A,,Overcast,320,2013-10-31 04:58:00